When you browse on this site, cookies collect data to enhance your experience and personalize the content and advertising you see.
Visit our Privacy Policy to learn more. By continuing to use the site, you agree to this use of cookies and data.
  • In United Kingdom
  • List of Countries
  • For 7 days
  • Water Temperature
  • Satellite Maps
  • Weather Map
  • Weather Widgets
  • user-avatar
    Login

    Hourly Weather Les Clayes-sous-Bois

    Today, 15 December, Saturday

    Time Temperature Precipitation Wind Pressure Humidity
    00:00 -1°C° 0 mm 1 mps 753 mmHg 72%
    01:00 -3°C° 0 mm 2 mps 753 mmHg 73%
    02:00 -3°C° 0 mm 2 mps 753 mmHg 73%
    03:00 -3°C° 0 mm 2 mps 752 mmHg 74%
    04:00 -4°C° 0 mm 3 mps 752 mmHg 73%
    05:00 -4°C° 0 mm 3 mps 752 mmHg 72%
    06:00 -4°C° 0 mm 3 mps 751 mmHg 71%
    07:00 -4°C° 0 mm 4 mps 751 mmHg 69%
    08:00 -3°C° 0 mm 4 mps 751 mmHg 68%
    09:00 -3°C° 0 mm 4 mps 751 mmHg 66%
    10:00 -4°C° 0.2 mm 5 mps 750 mmHg 67%
    11:00 -2°C° 0.2 mm 5 mps 749 mmHg 68%
    12:00 -3°C° 0.2 mm 6 mps 749 mmHg 69%
    13:00 -3°C° 1.3 mm 6 mps 748 mmHg 76%
    14:00 -3°C° 1.3 mm 6 mps 747 mmHg 83%
    15:00 -3°C° 1.3 mm 7 mps 746 mmHg 90%
    16:00 -3°C° 1 mm 7 mps 745 mmHg 91%
    17:00 -2°C° 1 mm 7 mps 744 mmHg 92%
    18:00 -2°C° 1 mm 7 mps 744 mmHg 92%
    19:00 -1°C° 0.4 mm 7 mps 743 mmHg 93%
    20:00 +1°C° 0.4 mm 6 mps 743 mmHg 94%
    21:00 +2°C° 0.4 mm 6 mps 742 mmHg 95%
    22:00 +2°C° 0.1 mm 5 mps 742 mmHg 95%
    23:00 +4°C° 0.1 mm 4 mps 742 mmHg 95%

    Tomorrow, 16 December, Sunday

    Time Temperature Precipitation Wind Pressure Humidity
    00:00 +4°C° 0.1 mm 4 mps 743 mmHg 96%
    01:00 +3°C° 0 mm 4 mps 743 mmHg 95%
    02:00 +3°C° 0 mm 4 mps 743 mmHg 94%
    03:00 +2°C° 0 mm 3 mps 743 mmHg 93%
    04:00 +2°C° 0 mm 3 mps 744 mmHg 93%
    05:00 +2°C° 0 mm 3 mps 744 mmHg 93%
    06:00 +1°C° 0 mm 3 mps 744 mmHg 93%
    07:00 +1°C° 0 mm 3 mps 745 mmHg 93%
    08:00 +2°C° 0 mm 3 mps 745 mmHg 94%
    09:00 +2°C° 0 mm 3 mps 745 mmHg 94%
    10:00 +3°C° 0 mm 3 mps 745 mmHg 92%
    11:00 +4°C° 0 mm 3 mps 745 mmHg 90%
    12:00 +5°C° 0 mm 3 mps 745 mmHg 88%
    13:00 +5°C° 0 mm 3 mps 745 mmHg 89%
    14:00 +5°C° 0 mm 3 mps 744 mmHg 91%
    15:00 +5°C° 0 mm 3 mps 744 mmHg 92%
    16:00 +4°C° 0 mm 3 mps 744 mmHg 93%
    17:00 +4°C° 0 mm 3 mps 744 mmHg 94%
    18:00 +4°C° 0 mm 3 mps 744 mmHg 95%
    19:00 +4°C° 0.1 mm 3 mps 744 mmHg 94%
    20:00 +4°C° 0.1 mm 3 mps 744 mmHg 94%
    21:00 +4°C° 0.1 mm 4 mps 743 mmHg 94%
    22:00 +4°C° 0.5 mm 4 mps 744 mmHg 94%
    23:00 +5°C° 0.5 mm 4 mps 744 mmHg 94%

    Day after tomorrow, 17 December, Monday

    Time Temperature Precipitation Wind Pressure Humidity
    00:00 +5°C° 0.5 mm 5 mps 744 mmHg 94%
    01:00 +5°C° 0.3 mm 5 mps 744 mmHg 92%
    02:00 +5°C° 0.3 mm 6 mps 745 mmHg 89%
    03:00 +5°C° 0.3 mm 6 mps 745 mmHg 87%
    04:00 +5°C° 0.1 mm 6 mps 746 mmHg 86%
    05:00 +4°C° 0.1 mm 6 mps 746 mmHg 86%
    06:00 +4°C° 0.1 mm 6 mps 747 mmHg 85%
    07:00 +5°C° 0 mm 5 mps 748 mmHg 86%
    08:00 +5°C° 0 mm 5 mps 749 mmHg 86%
    09:00 +4°C° 0 mm 4 mps 750 mmHg 87%
    10:00 +5°C° 0 mm 4 mps 751 mmHg 84%
    11:00 +6°C° 0 mm 4 mps 751 mmHg 81%
    12:00 +7°C° 0 mm 4 mps 752 mmHg 77%
    13:00 +7°C° 0 mm 4 mps 752 mmHg 79%
    14:00 +8°C° 0 mm 3 mps 753 mmHg 81%
    15:00 +8°C° 0 mm 3 mps 753 mmHg 82%
    16:00 +7°C° 0 mm 3 mps 753 mmHg 85%
    17:00 +6°C° 0 mm 2 mps 754 mmHg 88%
    18:00 +5°C° 0 mm 2 mps 754 mmHg 91%
    19:00 +4°C° 0 mm 3 mps 754 mmHg 91%
    20:00 +4°C° 0 mm 3 mps 754 mmHg 92%
    21:00 +4°C° 0 mm 3 mps 755 mmHg 92%
    22:00 +4°C° 0 mm 3 mps 754 mmHg 93%
    23:00 +3°C° 0 mm 3 mps 754 mmHg 93%

    18 December, Tuesday

    Time Temperature Precipitation Wind Pressure Humidity
    00:00 +3°C° 0 mm 3 mps 754 mmHg 94%
    01:00 +3°C° 0 mm 3 mps 754 mmHg 94%
    02:00 +3°C° 0 mm 3 mps 753 mmHg 95%
    03:00 +3°C° 0 mm 3 mps 753 mmHg 95%
    04:00 +3°C° 0 mm 4 mps 752 mmHg 95%
    05:00 +3°C° 0 mm 4 mps 752 mmHg 94%
    06:00 +2°C° 0 mm 5 mps 751 mmHg 94%
    07:00 +2°C° 0 mm 5 mps 751 mmHg 90%
    08:00 +2°C° 0 mm 5 mps 750 mmHg 86%
    09:00 +2°C° 0 mm 6 mps 750 mmHg 82%
    10:00 +3°C° 0 mm 6 mps 749 mmHg 76%
    11:00 +4°C° 0 mm 6 mps 748 mmHg 70%
    12:00 +5°C° 0 mm 7 mps 747 mmHg 63%
    13:00 +5°C° 0 mm 6 mps 747 mmHg 63%
    14:00 +5°C° 0 mm 6 mps 746 mmHg 63%
    15:00 +5°C° 0 mm 6 mps 745 mmHg 63%
    16:00 +5°C° 0 mm 6 mps 745 mmHg 65%
    17:00 +6°C° 0 mm 5 mps 744 mmHg 66%
    18:00 +6°C° 0 mm 5 mps 744 mmHg 68%
    19:00 +5°C° 0.1 mm 6 mps 744 mmHg 70%
    20:00 +7°C° 0.1 mm 6 mps 744 mmHg 72%
    21:00 +6°C° 0.1 mm 7 mps 744 mmHg 74%
    22:00 +6°C° 0.8 mm 7 mps 744 mmHg 79%
    23:00 +7°C° 0.8 mm 6 mps 745 mmHg 83%

    19 December, Wednesday

    Time Temperature Precipitation Wind Pressure Humidity
    00:00 +7°C° 0.8 mm 6 mps 745 mmHg 87%
    01:00 +7°C° 0 mm 6 mps 745 mmHg 89%
    02:00 +6°C° 0 mm 5 mps 745 mmHg 90%
    03:00 +6°C° 0 mm 5 mps 746 mmHg 92%
    04:00 +5°C° 0 mm 5 mps 746 mmHg 92%
    05:00 +5°C° 0 mm 4 mps 746 mmHg 93%
    06:00 +5°C° 0 mm 4 mps 746 mmHg 93%
    07:00 +5°C° 0 mm 4 mps 746 mmHg 93%
    08:00 +5°C° 0 mm 4 mps 747 mmHg 93%
    09:00 +5°C° 0 mm 4 mps 747 mmHg 92%
    10:00 +6°C° 0 mm 4 mps 747 mmHg 90%
    11:00 +6°C° 0 mm 4 mps 747 mmHg 88%
    12:00 +7°C° 0 mm 4 mps 747 mmHg 86%
    13:00 +7°C° 0 mm 4 mps 747 mmHg 85%
    14:00 +8°C° 0 mm 3 mps 747 mmHg 84%
    15:00 +7°C° 0 mm 3 mps 747 mmHg 83%
    16:00 +7°C° 0.2 mm 2 mps 747 mmHg 86%
    17:00 +7°C° 0.2 mm 2 mps 747 mmHg 88%
    18:00 +6°C° 0.2 mm 2 mps 748 mmHg 91%
    19:00 +5°C° 0 mm 3 mps 748 mmHg 92%
    20:00 +4°C° 0 mm 3 mps 748 mmHg 92%
    21:00 +4°C° 0 mm 3 mps 748 mmHg 93%
    22:00 +4°C° 0 mm 3 mps 748 mmHg 92%
    23:00 +3°C° 0 mm 3 mps 748 mmHg 92%

    20 December, Thursday

    Time Temperature Precipitation Wind Pressure Humidity
    00:00 +3°C° 0 mm 3 mps 749 mmHg 92%
    01:00 +3°C° 0 mm 3 mps 749 mmHg 92%
    02:00 +3°C° 0 mm 3 mps 749 mmHg 91%
    03:00 +2°C° 0 mm 3 mps 749 mmHg 91%
    04:00 +1°C° 0 mm 4 mps 749 mmHg 90%
    05:00 +1°C° 0 mm 4 mps 749 mmHg 90%
    06:00 +3°C° 0 mm 4 mps 749 mmHg 90%
    07:00 +2°C° 0 mm 5 mps 749 mmHg 89%
    08:00 +2°C° 0 mm 5 mps 749 mmHg 88%
    09:00 +3°C° 0 mm 5 mps 749 mmHg 87%
    10:00 +4°C° 0.3 mm 6 mps 748 mmHg 85%
    11:00 +4°C° 0.3 mm 6 mps 748 mmHg 83%
    12:00 +5°C° 0.3 mm 6 mps 748 mmHg 80%
    13:00 +5°C° 0.4 mm 6 mps 748 mmHg 81%
    14:00 +6°C° 0.4 mm 5 mps 748 mmHg 81%
    15:00 +6°C° 0.4 mm 5 mps 748 mmHg 82%
    16:00 +6°C° 0.1 mm 4 mps 748 mmHg 83%
    17:00 +5°C° 0.1 mm 4 mps 749 mmHg 85%
    18:00 +5°C° 0.1 mm 4 mps 749 mmHg 87%
    19:00 +4°C° 0 mm 3 mps 750 mmHg 88%
    20:00 +4°C° 0 mm 3 mps 750 mmHg 89%
    21:00 +3°C° 0 mm 3 mps 750 mmHg 90%
    22:00 +3°C° 0 mm 3 mps 750 mmHg 90%
    23:00 +3°C° 0 mm 3 mps 750 mmHg 90%
    Show more